Year,Month,Day,Hour,Minute,Value (Times are PST for temperature in C)
2011,09,20,00,00,8.10
2011,09,20,00,01,8.10
2011,09,20,00,02,8.10
2011,09,20,00,03,8.10
2011,09,20,00,04,8.10
2011,09,20,00,05,8.10
2011,09,20,00,06,8.00
2011,09,20,00,07,8.00
2011,09,20,00,08,8.00
2011,09,20,00,09,8.00
2011,09,20,00,10,8.00
2011,09,20,00,11,8.00
2011,09,20,00,12,8.00
2011,09,20,00,13,8.00
2011,09,20,00,14,8.00
2011,09,20,00,15,8.00
2011,09,20,00,16,8.00
2011,09,20,00,17,8.00
2011,09,20,00,18,8.00
2011,09,20,00,19,8.00
2011,09,20,00,20,8.00
2011,09,20,00,21,8.00
2011,09,20,00,22,8.00
2011,09,20,00,23,8.00
2011,09,20,00,24,8.00
2011,09,20,00,25,8.00
2011,09,20,00,26,8.00
2011,09,20,00,27,8.00
2011,09,20,00,28,8.00
2011,09,20,00,29,8.00
2011,09,20,00,30,7.90
2011,09,20,00,31,7.90
2011,09,20,00,32,7.90
2011,09,20,00,33,7.90
2011,09,20,00,34,7.90
2011,09,20,00,35,7.80
2011,09,20,00,36,7.80
2011,09,20,00,37,7.80
2011,09,20,00,38,7.80
2011,09,20,00,39,7.80
2011,09,20,00,40,7.80
2011,09,20,00,41,7.70
2011,09,20,00,42,7.70
2011,09,20,00,43,7.70
2011,09,20,00,44,7.70
2011,09,20,00,45,7.70
2011,09,20,00,46,7.70
2011,09,20,00,47,7.70
2011,09,20,00,48,7.70
2011,09,20,00,49,7.70
2011,09,20,00,50,7.70
2011,09,20,00,51,7.70
2011,09,20,00,52,7.70
2011,09,20,00,53,7.70
2011,09,20,00,54,7.70
2011,09,20,00,55,7.70
2011,09,20,00,56,7.70
2011,09,20,00,57,7.60
2011,09,20,00,58,7.60
2011,09,20,00,59,7.60
2011,09,20,01,00,7.60
2011,09,20,01,01,7.60
2011,09,20,01,02,7.60
2011,09,20,01,03,7.60
2011,09,20,01,04,7.60
2011,09,20,01,05,7.60
2011,09,20,01,06,7.50
2011,09,20,01,07,7.50
2011,09,20,01,08,7.50
2011,09,20,01,09,7.50
2011,09,20,01,10,7.50
2011,09,20,01,11,7.50
2011,09,20,01,12,7.50
2011,09,20,01,13,7.50
2011,09,20,01,14,7.50
2011,09,20,01,15,7.50
2011,09,20,01,16,7.50
2011,09,20,01,17,7.50
2011,09,20,01,18,7.60
2011,09,20,01,19,7.60
2011,09,20,01,20,7.60
2011,09,20,01,21,7.60
2011,09,20,01,22,7.60
2011,09,20,01,23,7.60
2011,09,20,01,24,7.60
2011,09,20,01,25,7.60
2011,09,20,01,26,7.60
2011,09,20,01,27,7.60
2011,09,20,01,28,7.60
2011,09,20,01,29,7.60
2011,09,20,01,30,7.60
2011,09,20,01,31,7.60
2011,09,20,01,32,7.50
2011,09,20,01,33,7.50
2011,09,20,01,34,7.50
2011,09,20,01,35,7.50
2011,09,20,01,36,7.40
2011,09,20,01,37,7.40
2011,09,20,01,38,7.40
2011,09,20,01,39,7.40
2011,09,20,01,40,7.40
2011,09,20,01,41,7.40
2011,09,20,01,42,7.40
2011,09,20,01,43,7.40
2011,09,20,01,44,7.30
2011,09,20,01,45,7.30
2011,09,20,01,46,7.30
2011,09,20,01,47,7.30
2011,09,20,01,48,7.30
2011,09,20,01,49,7.30
2011,09,20,01,50,7.30
2011,09,20,01,51,7.30
2011,09,20,01,52,7.20
2011,09,20,01,53,7.20
2011,09,20,01,54,7.20
2011,09,20,01,55,7.20
2011,09,20,01,56,7.20
2011,09,20,01,57,7.20
2011,09,20,01,58,7.20
2011,09,20,01,59,7.10
2011,09,20,02,00,7.10
2011,09,20,02,01,7.10
2011,09,20,02,02,7.10
2011,09,20,02,03,7.10
2011,09,20,02,04,7.10
2011,09,20,02,05,7.10
2011,09,20,02,06,7.10
2011,09,20,02,07,7.10
2011,09,20,02,08,7.10
2011,09,20,02,09,7.00
2011,09,20,02,10,7.00
2011,09,20,02,11,7.00
2011,09,20,02,12,7.00
2011,09,20,02,13,7.00
2011,09,20,02,14,7.00
2011,09,20,02,15,7.00
2011,09,20,02,16,7.00
2011,09,20,02,17,6.90
2011,09,20,02,18,6.90
2011,09,20,02,19,6.90
2011,09,20,02,20,6.90
2011,09,20,02,21,6.90
2011,09,20,02,22,6.90
2011,09,20,02,23,6.90
2011,09,20,02,24,6.90
2011,09,20,02,25,6.90
2011,09,20,02,26,6.90
2011,09,20,02,27,6.90
2011,09,20,02,28,6.90
2011,09,20,02,29,6.90
2011,09,20,02,30,6.90
2011,09,20,02,31,6.90
2011,09,20,02,32,6.90
2011,09,20,02,33,6.90
2011,09,20,02,34,6.80
2011,09,20,02,35,6.80
2011,09,20,02,36,6.80
2011,09,20,02,37,6.80
2011,09,20,02,38,6.80
2011,09,20,02,39,6.80
2011,09,20,02,40,6.80
2011,09,20,02,41,6.80
2011,09,20,02,42,6.80
2011,09,20,02,43,6.80
2011,09,20,02,44,6.80
2011,09,20,02,45,6.80
2011,09,20,02,46,6.80
2011,09,20,02,47,6.80
2011,09,20,02,48,6.80
2011,09,20,02,49,6.70
2011,09,20,02,50,6.70
2011,09,20,02,51,6.70
2011,09,20,02,52,6.70
2011,09,20,02,53,6.70
2011,09,20,02,54,6.70
2011,09,20,02,55,6.70
2011,09,20,02,56,6.70
2011,09,20,02,57,6.70
2011,09,20,02,58,6.70
2011,09,20,02,59,6.70
2011,09,20,03,00,6.70
2011,09,20,03,01,6.70
2011,09,20,03,02,6.70
2011,09,20,03,03,6.60
2011,09,20,03,04,6.60
2011,09,20,03,05,6.60
2011,09,20,03,06,6.60
2011,09,20,03,07,6.60
2011,09,20,03,08,6.60
2011,09,20,03,09,6.60
2011,09,20,03,10,6.60
2011,09,20,03,11,6.60
2011,09,20,03,12,6.60
2011,09,20,03,13,6.60
2011,09,20,03,14,6.60
2011,09,20,03,15,6.60
2011,09,20,03,16,6.60
2011,09,20,03,17,6.60
2011,09,20,03,18,6.60
2011,09,20,03,19,6.60
2011,09,20,03,20,6.60
2011,09,20,03,21,6.60
2011,09,20,03,22,6.60
2011,09,20,03,23,6.60
2011,09,20,03,24,6.60
2011,09,20,03,25,6.60
2011,09,20,03,26,6.60
2011,09,20,03,27,6.60
2011,09,20,03,28,6.60
2011,09,20,03,29,6.50
2011,09,20,03,30,6.50
2011,09,20,03,31,6.50
2011,09,20,03,32,6.50
2011,09,20,03,33,6.50
2011,09,20,03,34,6.50
2011,09,20,03,35,6.50
2011,09,20,03,36,6.50
2011,09,20,03,37,6.50
2011,09,20,03,38,6.50
2011,09,20,03,39,6.40
2011,09,20,03,40,6.40
2011,09,20,03,41,6.40
2011,09,20,03,42,6.50
2011,09,20,03,43,6.50
2011,09,20,03,44,6.50
2011,09,20,03,45,6.50
2011,09,20,03,46,6.60
2011,09,20,03,47,6.50
2011,09,20,03,48,6.60
2011,09,20,03,49,6.60
2011,09,20,03,50,6.60
2011,09,20,03,51,6.60
2011,09,20,03,52,6.60
2011,09,20,03,53,6.60
2011,09,20,03,54,6.60
2011,09,20,03,55,6.60
2011,09,20,03,56,6.60
2011,09,20,03,57,6.60
2011,09,20,03,58,6.50
2011,09,20,03,59,6.50
2011,09,20,04,00,6.50
2011,09,20,04,01,6.50
2011,09,20,04,02,6.50
2011,09,20,04,03,6.40
2011,09,20,04,04,6.40
2011,09,20,04,05,6.40
2011,09,20,04,06,6.40
2011,09,20,04,07,6.40
2011,09,20,04,08,6.50
2011,09,20,04,09,6.50
2011,09,20,04,10,6.50
2011,09,20,04,11,6.50
2011,09,20,04,12,6.50
2011,09,20,04,13,6.50
2011,09,20,04,14,6.50
2011,09,20,04,15,6.50
2011,09,20,04,16,6.60
2011,09,20,04,17,6.60
2011,09,20,04,18,6.60
2011,09,20,04,19,6.60
2011,09,20,04,20,6.70
2011,09,20,04,21,6.70
2011,09,20,04,22,6.70
2011,09,20,04,23,6.70
2011,09,20,04,24,6.70
2011,09,20,04,25,6.70
2011,09,20,04,26,6.70
2011,09,20,04,27,6.70
2011,09,20,04,28,6.70
2011,09,20,04,29,6.60
2011,09,20,04,30,6.60
2011,09,20,04,31,6.60
2011,09,20,04,32,6.60
2011,09,20,04,33,6.60
2011,09,20,04,34,6.60
2011,09,20,04,35,6.60
2011,09,20,04,36,6.60
2011,09,20,04,37,6.60
2011,09,20,04,38,6.60
2011,09,20,04,39,6.60
2011,09,20,04,40,6.60
2011,09,20,04,41,6.60
2011,09,20,04,42,6.50
2011,09,20,04,43,6.50
2011,09,20,04,44,6.50
2011,09,20,04,45,6.50
2011,09,20,04,46,6.50
2011,09,20,04,47,6.40
2011,09,20,04,48,6.40
2011,09,20,04,49,6.40
2011,09,20,04,50,6.40
2011,09,20,04,51,6.40
2011,09,20,04,52,6.40
2011,09,20,04,53,6.40
2011,09,20,04,54,6.40
2011,09,20,04,55,6.40
2011,09,20,04,56,6.40
2011,09,20,04,57,6.40
2011,09,20,04,58,6.40
2011,09,20,04,59,6.40
2011,09,20,05,00,6.40
2011,09,20,05,01,6.40
2011,09,20,05,02,6.40
2011,09,20,05,03,6.40
2011,09,20,05,04,6.40
2011,09,20,05,05,6.40
2011,09,20,05,06,6.40
2011,09,20,05,07,6.40
2011,09,20,05,08,6.40
2011,09,20,05,09,6.50
2011,09,20,05,10,6.50
2011,09,20,05,11,6.50
2011,09,20,05,12,6.50
2011,09,20,05,13,6.50
2011,09,20,05,14,6.50
2011,09,20,05,15,6.50
2011,09,20,05,16,6.50
2011,09,20,05,17,6.50
2011,09,20,05,18,6.50
2011,09,20,05,19,6.50
2011,09,20,05,20,6.40
2011,09,20,05,21,6.40
2011,09,20,05,22,6.40
2011,09,20,05,23,6.40
2011,09,20,05,24,6.40
2011,09,20,05,25,6.40
2011,09,20,05,26,6.30
2011,09,20,05,27,6.30
2011,09,20,05,28,6.30
2011,09,20,05,29,6.30
2011,09,20,05,30,6.30
2011,09,20,05,31,6.30
2011,09,20,05,32,6.30
2011,09,20,05,33,6.30
2011,09,20,05,34,6.30
2011,09,20,05,35,6.30
2011,09,20,05,36,6.30
2011,09,20,05,37,6.30
2011,09,20,05,38,6.30
2011,09,20,05,39,6.30
2011,09,20,05,40,6.40
2011,09,20,05,41,6.40
2011,09,20,05,42,6.40
2011,09,20,05,43,6.40
2011,09,20,05,44,6.40
2011,09,20,05,45,6.40
2011,09,20,05,46,6.40
2011,09,20,05,47,6.40
2011,09,20,05,48,6.40
2011,09,20,05,49,6.40
2011,09,20,05,50,6.40
2011,09,20,05,51,6.30
2011,09,20,05,52,6.30
2011,09,20,05,53,6.30
2011,09,20,05,54,6.30
2011,09,20,05,55,6.30
2011,09,20,05,56,6.30
2011,09,20,05,57,6.30
2011,09,20,05,58,6.30
2011,09,20,05,59,6.30
2011,09,20,06,00,6.30
2011,09,20,06,01,6.30
2011,09,20,06,02,6.30
2011,09,20,06,03,6.30
2011,09,20,06,04,6.30
2011,09,20,06,05,6.30
2011,09,20,06,06,6.30
2011,09,20,06,07,6.30
2011,09,20,06,08,6.30
2011,09,20,06,09,6.30
2011,09,20,06,10,6.30
2011,09,20,06,11,6.20
2011,09,20,06,12,6.20
2011,09,20,06,13,6.20
2011,09,20,06,14,6.20
2011,09,20,06,15,6.20
2011,09,20,06,16,6.20
2011,09,20,06,17,6.20
2011,09,20,06,18,6.20
2011,09,20,06,19,6.20
2011,09,20,06,20,6.20
2011,09,20,06,21,6.20
2011,09,20,06,22,6.20
2011,09,20,06,23,6.20
2011,09,20,06,24,6.20
2011,09,20,06,25,6.20
2011,09,20,06,26,6.20
2011,09,20,06,27,6.30
2011,09,20,06,28,6.30
2011,09,20,06,29,6.30
2011,09,20,06,30,6.20
2011,09,20,06,31,6.20
2011,09,20,06,32,6.20
2011,09,20,06,33,6.20
2011,09,20,06,34,6.20
2011,09,20,06,35,6.20
2011,09,20,06,36,6.20
2011,09,20,06,37,6.20
2011,09,20,06,38,6.20
2011,09,20,06,39,6.20
2011,09,20,06,40,6.20
2011,09,20,06,41,6.20
2011,09,20,06,42,6.10
2011,09,20,06,43,6.10
2011,09,20,06,44,6.10
2011,09,20,06,45,6.10
2011,09,20,06,46,6.10
2011,09,20,06,47,6.10
2011,09,20,06,48,6.10
2011,09,20,06,49,6.10
2011,09,20,06,50,6.10
2011,09,20,06,51,6.10
2011,09,20,06,52,6.10
2011,09,20,06,53,6.10
2011,09,20,06,54,6.10
2011,09,20,06,55,6.10
2011,09,20,06,56,6.10
2011,09,20,06,57,6.10
2011,09,20,06,58,6.10
2011,09,20,06,59,6.10
2011,09,20,07,00,6.10
2011,09,20,07,01,6.10
2011,09,20,07,02,6.10
2011,09,20,07,03,6.10
2011,09,20,07,04,6.10
2011,09,20,07,05,6.10
2011,09,20,07,06,6.10
2011,09,20,07,07,6.10
2011,09,20,07,08,6.10
2011,09,20,07,09,6.10
2011,09,20,07,10,6.10
2011,09,20,07,11,6.10
2011,09,20,07,12,6.10
2011,09,20,07,13,6.10
2011,09,20,07,14,6.10
2011,09,20,07,15,6.10
2011,09,20,07,16,6.10
2011,09,20,07,17,6.10
2011,09,20,07,18,6.10
2011,09,20,07,19,6.10
2011,09,20,07,20,6.10
2011,09,20,07,21,6.10
2011,09,20,07,22,6.10
2011,09,20,07,23,6.10
2011,09,20,07,24,6.20
2011,09,20,07,25,6.20
2011,09,20,07,26,6.20
2011,09,20,07,27,6.20
2011,09,20,07,28,6.20
2011,09,20,07,29,6.20
2011,09,20,07,30,6.20
2011,09,20,07,31,6.30
2011,09,20,07,32,6.30
2011,09,20,07,33,6.30
2011,09,20,07,34,6.30
2011,09,20,07,35,6.30
2011,09,20,07,36,6.30
2011,09,20,07,37,6.30
2011,09,20,07,38,6.40
2011,09,20,07,39,6.40
2011,09,20,07,40,6.50
2011,09,20,07,41,6.50
2011,09,20,07,42,6.50
2011,09,20,07,43,6.60
2011,09,20,07,44,6.60
2011,09,20,07,45,6.60
2011,09,20,07,46,6.70
2011,09,20,07,47,6.70
2011,09,20,07,48,6.70
2011,09,20,07,49,6.80
2011,09,20,07,50,6.80
2011,09,20,07,51,6.90
2011,09,20,07,52,6.90
2011,09,20,07,53,6.90
2011,09,20,07,54,7.00
2011,09,20,07,55,7.00
2011,09,20,07,56,7.10
2011,09,20,07,57,7.10
2011,09,20,07,58,7.10
2011,09,20,07,59,7.20
2011,09,20,08,00,7.20
2011,09,20,08,01,7.20
2011,09,20,08,02,7.30
2011,09,20,08,03,7.30
2011,09,20,08,04,7.40
2011,09,20,08,05,7.40
2011,09,20,08,06,7.50
2011,09,20,08,07,7.50
2011,09,20,08,08,7.60
2011,09,20,08,09,7.70
2011,09,20,08,10,7.70
2011,09,20,08,11,7.80
2011,09,20,08,12,7.80
2011,09,20,08,13,7.90
2011,09,20,08,14,7.90
2011,09,20,08,15,8.00
2011,09,20,08,16,8.10
2011,09,20,08,17,8.10
2011,09,20,08,18,8.20
2011,09,20,08,19,8.20
2011,09,20,08,20,8.30
2011,09,20,08,21,8.40
2011,09,20,08,22,8.40
2011,09,20,08,23,8.50
2011,09,20,08,24,8.60
2011,09,20,08,25,8.60
2011,09,20,08,26,8.70
2011,09,20,08,27,8.80
2011,09,20,08,28,8.90
2011,09,20,08,29,9.00
2011,09,20,08,30,9.00
2011,09,20,08,31,9.10
2011,09,20,08,32,9.20
2011,09,20,08,33,9.30
2011,09,20,08,34,9.30
2011,09,20,08,35,9.40
2011,09,20,08,36,9.50
2011,09,20,08,37,9.60
2011,09,20,08,38,9.70
2011,09,20,08,39,9.80
2011,09,20,08,40,9.90
2011,09,20,08,41,10.00
2011,09,20,08,42,10.20
2011,09,20,08,43,10.30
2011,09,20,08,44,10.40
2011,09,20,08,45,10.50
2011,09,20,08,46,10.60
2011,09,20,08,47,10.80
2011,09,20,08,48,10.90
2011,09,20,08,49,11.00
2011,09,20,08,50,11.00
2011,09,20,08,51,11.10
2011,09,20,08,52,11.20
2011,09,20,08,53,11.20
2011,09,20,08,54,11.30
2011,09,20,08,55,11.30
2011,09,20,08,56,11.40
2011,09,20,08,57,11.40
2011,09,20,08,58,11.50
2011,09,20,08,59,11.60
2011,09,20,09,00,11.60
2011,09,20,09,01,11.70
2011,09,20,09,02,11.70
2011,09,20,09,03,11.80
2011,09,20,09,04,11.90
2011,09,20,09,05,11.90
2011,09,20,09,06,12.00
2011,09,20,09,07,12.10
2011,09,20,09,08,12.20
2011,09,20,09,09,12.20
2011,09,20,09,10,12.30
2011,09,20,09,11,12.40
2011,09,20,09,12,12.50
2011,09,20,09,13,12.50
2011,09,20,09,14,12.60
2011,09,20,09,15,12.70
2011,09,20,09,16,12.70
2011,09,20,09,17,12.80
2011,09,20,09,18,12.80
2011,09,20,09,19,12.90
2011,09,20,09,20,13.00
2011,09,20,09,21,13.00
2011,09,20,09,22,13.10
2011,09,20,09,23,13.10
2011,09,20,09,24,13.10
2011,09,20,09,25,13.20
2011,09,20,09,26,13.30
2011,09,20,09,27,13.30
2011,09,20,09,28,13.30
2011,09,20,09,29,13.40
2011,09,20,09,30,13.40
2011,09,20,09,31,13.50
2011,09,20,09,32,13.60
2011,09,20,09,33,13.60
2011,09,20,09,34,13.60
2011,09,20,09,35,13.60
2011,09,20,09,36,13.70
2011,09,20,09,37,13.70
2011,09,20,09,38,13.70
2011,09,20,09,39,13.70
2011,09,20,09,40,13.80
2011,09,20,09,41,13.80
2011,09,20,09,42,13.80
2011,09,20,09,43,13.80
2011,09,20,09,44,13.80
2011,09,20,09,45,13.80
2011,09,20,09,46,13.80
2011,09,20,09,47,13.80
2011,09,20,09,48,13.80
2011,09,20,09,49,13.90
2011,09,20,09,50,13.90
2011,09,20,09,51,13.90
2011,09,20,09,52,13.90
2011,09,20,09,53,14.00
2011,09,20,09,54,14.00
2011,09,20,09,55,14.10
2011,09,20,09,56,14.10
2011,09,20,09,57,14.20
2011,09,20,09,58,14.20
2011,09,20,09,59,14.30
2011,09,20,10,00,14.30
2011,09,20,10,01,14.30
2011,09,20,10,02,14.40
2011,09,20,10,03,14.40
2011,09,20,10,04,14.50
2011,09,20,10,05,14.50
2011,09,20,10,06,14.60
2011,09,20,10,07,14.60
2011,09,20,10,08,14.60
2011,09,20,10,09,14.70
2011,09,20,10,10,14.70
2011,09,20,10,11,14.70
2011,09,20,10,12,14.80
2011,09,20,10,13,14.80
2011,09,20,10,14,14.80
2011,09,20,10,15,14.80
2011,09,20,10,16,14.90
2011,09,20,10,17,14.90
2011,09,20,10,18,15.00
2011,09,20,10,19,15.00
2011,09,20,10,20,15.10
2011,09,20,10,21,15.20
2011,09,20,10,22,15.20
2011,09,20,10,23,15.30
2011,09,20,10,24,15.30
2011,09,20,10,25,15.40
2011,09,20,10,26,15.50
2011,09,20,10,27,15.60
2011,09,20,10,28,15.70
2011,09,20,10,29,15.70
2011,09,20,10,30,15.80
2011,09,20,10,31,15.80
2011,09,20,10,32,15.80
2011,09,20,10,33,15.80
2011,09,20,10,34,15.90
2011,09,20,10,35,15.90
2011,09,20,10,36,15.90
2011,09,20,10,37,16.00
2011,09,20,10,38,16.00
2011,09,20,10,39,16.00
2011,09,20,10,40,16.10
2011,09,20,10,41,16.10
2011,09,20,10,42,16.10
2011,09,20,10,43,16.10
2011,09,20,10,44,16.20
2011,09,20,10,45,16.20
2011,09,20,10,46,16.20
2011,09,20,10,47,16.20
2011,09,20,10,48,16.20
2011,09,20,10,49,16.20
2011,09,20,10,50,16.20
2011,09,20,10,51,16.20
2011,09,20,10,52,16.20
2011,09,20,10,53,16.30
2011,09,20,10,54,16.30
2011,09,20,10,55,16.30
2011,09,20,10,56,16.30
2011,09,20,10,57,16.30
2011,09,20,10,58,16.30
2011,09,20,10,59,16.30
2011,09,20,11,00,16.30
2011,09,20,11,01,16.40
2011,09,20,11,02,16.40
2011,09,20,11,03,16.40
2011,09,20,11,04,16.50
2011,09,20,11,05,16.50
2011,09,20,11,06,16.60
2011,09,20,11,07,16.60
2011,09,20,11,08,16.60
2011,09,20,11,09,16.70
2011,09,20,11,10,16.70
2011,09,20,11,11,16.70
2011,09,20,11,12,16.70
2011,09,20,11,13,16.70
2011,09,20,11,14,16.70
2011,09,20,11,15,16.70
2011,09,20,11,16,16.70
2011,09,20,11,17,16.70
2011,09,20,11,18,16.70
2011,09,20,11,19,16.60
2011,09,20,11,20,16.60
2011,09,20,11,21,16.60
2011,09,20,11,22,16.70
2011,09,20,11,23,16.70
2011,09,20,11,24,16.70
2011,09,20,11,25,16.70
2011,09,20,11,26,16.80
2011,09,20,11,27,16.80
2011,09,20,11,28,16.80
2011,09,20,11,29,16.80
2011,09,20,11,30,16.80
2011,09,20,11,31,16.80
2011,09,20,11,32,16.70
2011,09,20,11,33,16.70
2011,09,20,11,34,16.70
2011,09,20,11,35,16.70
2011,09,20,11,36,16.70
2011,09,20,11,37,16.70
2011,09,20,11,38,16.70
2011,09,20,11,39,16.70
2011,09,20,11,40,16.70
2011,09,20,11,41,16.70
2011,09,20,11,42,16.70
2011,09,20,11,43,16.80
2011,09,20,11,44,16.80
2011,09,20,11,45,16.80
2011,09,20,11,46,16.80
2011,09,20,11,47,16.80
2011,09,20,11,48,16.80
2011,09,20,11,49,16.80
2011,09,20,11,50,16.80
2011,09,20,11,51,16.80
2011,09,20,11,52,16.80
2011,09,20,11,53,16.80
2011,09,20,11,54,16.90
2011,09,20,11,55,16.90
2011,09,20,11,56,16.90
2011,09,20,11,57,16.90
2011,09,20,11,58,17.00
2011,09,20,11,59,17.00
2011,09,20,12,00,17.10
2011,09,20,12,01,17.10
2011,09,20,12,02,17.10
2011,09,20,12,03,17.10
2011,09,20,12,04,17.10
2011,09,20,12,05,17.20
2011,09,20,12,06,17.20
2011,09,20,12,07,17.20
2011,09,20,12,08,17.20
2011,09,20,12,09,17.20
2011,09,20,12,10,17.30
2011,09,20,12,11,17.30
2011,09,20,12,12,17.40
2011,09,20,12,13,17.40
2011,09,20,12,14,17.40
2011,09,20,12,15,17.50
2011,09,20,12,16,17.50
2011,09,20,12,17,17.40
2011,09,20,12,18,17.50
2011,09,20,12,19,17.50
2011,09,20,12,20,17.40
2011,09,20,12,21,17.40
2011,09,20,12,22,17.40
2011,09,20,12,23,17.50
2011,09,20,12,24,17.50
2011,09,20,12,25,17.50
2011,09,20,12,26,17.50
2011,09,20,12,27,17.50
2011,09,20,12,28,17.60
2011,09,20,12,29,17.60
2011,09,20,12,30,17.70
2011,09,20,12,31,17.70
2011,09,20,12,32,17.70
2011,09,20,12,33,17.80
2011,09,20,12,34,17.80
2011,09,20,12,35,17.90
2011,09,20,12,36,17.90
2011,09,20,12,37,17.90
2011,09,20,12,38,18.00
2011,09,20,12,39,18.00
2011,09,20,12,40,18.00
2011,09,20,12,41,18.10
2011,09,20,12,42,18.20
2011,09,20,12,43,18.10
2011,09,20,12,44,18.10
2011,09,20,12,45,18.20
2011,09,20,12,46,18.10
2011,09,20,12,47,18.10
2011,09,20,12,48,18.10
2011,09,20,12,49,18.10
2011,09,20,12,50,18.20
2011,09,20,12,51,18.30
2011,09,20,12,52,18.30
2011,09,20,12,53,18.30
2011,09,20,12,54,18.30
2011,09,20,12,55,18.30
2011,09,20,12,56,18.30
2011,09,20,12,57,18.30
2011,09,20,12,58,18.30
2011,09,20,12,59,18.40
2011,09,20,13,00,18.40
2011,09,20,13,01,18.40
2011,09,20,13,02,18.50
2011,09,20,13,03,18.50
2011,09,20,13,04,18.60
2011,09,20,13,05,18.60
2011,09,20,13,06,18.60
2011,09,20,13,07,18.70
2011,09,20,13,08,18.70
2011,09,20,13,09,18.70
2011,09,20,13,10,18.70
2011,09,20,13,11,18.70
2011,09,20,13,12,18.70
2011,09,20,13,13,18.70
2011,09,20,13,14,18.70
2011,09,20,13,15,18.80
2011,09,20,13,16,18.80
2011,09,20,13,17,18.90
2011,09,20,13,18,19.00
2011,09,20,13,19,19.00
2011,09,20,13,20,19.10
2011,09,20,13,21,19.10
2011,09,20,13,22,19.10
2011,09,20,13,23,19.00
2011,09,20,13,24,18.90
2011,09,20,13,25,18.90
2011,09,20,13,26,19.00
2011,09,20,13,27,19.10
2011,09,20,13,28,19.10
2011,09,20,13,29,19.10
2011,09,20,13,30,19.10
2011,09,20,13,31,19.20
2011,09,20,13,32,19.20
2011,09,20,13,33,19.20
2011,09,20,13,34,19.10
2011,09,20,13,35,19.10
2011,09,20,13,36,19.00
2011,09,20,13,37,19.00
2011,09,20,13,38,19.00
2011,09,20,13,39,19.00
2011,09,20,13,40,19.10
2011,09,20,13,41,19.10
2011,09,20,13,42,19.10
2011,09,20,13,43,19.10
2011,09,20,13,44,19.10
2011,09,20,13,45,19.10
2011,09,20,13,46,19.10
2011,09,20,13,47,19.00
2011,09,20,13,48,19.00
2011,09,20,13,49,18.90
2011,09,20,13,50,18.90
2011,09,20,13,51,18.80
2011,09,20,13,52,18.80
2011,09,20,13,53,18.80
2011,09,20,13,54,18.80
2011,09,20,13,55,18.90
2011,09,20,13,56,18.90
2011,09,20,13,57,18.90
2011,09,20,13,58,18.90
2011,09,20,13,59,18.90
2011,09,20,14,00,18.90
2011,09,20,14,01,18.90
2011,09,20,14,02,18.90
2011,09,20,14,03,18.90
2011,09,20,14,04,18.80
2011,09,20,14,05,18.80
2011,09,20,14,06,18.80
2011,09,20,14,07,18.80
2011,09,20,14,08,18.80
2011,09,20,14,09,18.80
2011,09,20,14,10,18.90
2011,09,20,14,11,18.90
2011,09,20,14,12,18.90
2011,09,20,14,13,18.90
2011,09,20,14,14,19.00
2011,09,20,14,15,19.00
2011,09,20,14,16,19.00
2011,09,20,14,17,19.00
2011,09,20,14,18,19.00
2011,09,20,14,19,18.90
2011,09,20,14,20,18.90
2011,09,20,14,21,18.90
2011,09,20,14,22,18.90
2011,09,20,14,23,18.90
2011,09,20,14,24,18.90
2011,09,20,14,25,18.90
2011,09,20,14,26,18.90
2011,09,20,14,27,19.00
2011,09,20,14,28,19.10
2011,09,20,14,29,19.10
2011,09,20,14,30,19.10
2011,09,20,14,31,19.10
2011,09,20,14,32,19.10
2011,09,20,14,33,19.10
2011,09,20,14,34,19.10
2011,09,20,14,35,19.10
2011,09,20,14,36,19.10
2011,09,20,14,37,19.10
2011,09,20,14,38,19.20
2011,09,20,14,39,19.20
2011,09,20,14,40,19.30
2011,09,20,14,41,19.30
2011,09,20,14,42,19.30
2011,09,20,14,43,19.30
2011,09,20,14,44,19.20
2011,09,20,14,45,19.20
2011,09,20,14,46,19.20
2011,09,20,14,47,19.20
2011,09,20,14,48,19.20
2011,09,20,14,49,19.20
2011,09,20,14,50,19.30
2011,09,20,14,51,19.30
2011,09,20,14,52,19.40
2011,09,20,14,53,19.50
2011,09,20,14,54,19.50
2011,09,20,14,55,19.60
2011,09,20,14,56,19.70
2011,09,20,14,57,19.60
2011,09,20,14,58,19.60
2011,09,20,14,59,19.50
2011,09,20,15,00,19.50
2011,09,20,15,01,19.50
2011,09,20,15,02,19.40
2011,09,20,15,03,19.40
2011,09,20,15,04,19.30
2011,09,20,15,05,19.20
2011,09,20,15,06,19.20
2011,09,20,15,07,19.20
2011,09,20,15,08,19.10
2011,09,20,15,09,19.10
2011,09,20,15,10,19.00
2011,09,20,15,11,19.00
2011,09,20,15,12,19.00
2011,09,20,15,13,19.00
2011,09,20,15,14,19.00
2011,09,20,15,15,19.00
2011,09,20,15,16,19.00
2011,09,20,15,17,19.00
2011,09,20,15,18,19.00
2011,09,20,15,19,19.00
2011,09,20,15,20,19.00
2011,09,20,15,21,18.90
2011,09,20,15,22,18.90
2011,09,20,15,23,18.90
2011,09,20,15,24,19.00
2011,09,20,15,25,19.10
2011,09,20,15,26,19.10
2011,09,20,15,27,19.20
2011,09,20,15,28,19.30
2011,09,20,15,29,19.30
2011,09,20,15,30,19.40
2011,09,20,15,31,19.40
2011,09,20,15,32,19.50
2011,09,20,15,33,19.50
2011,09,20,15,34,19.60
2011,09,20,15,35,19.50
2011,09,20,15,36,19.50
2011,09,20,15,37,19.50
2011,09,20,15,38,19.40
2011,09,20,15,39,19.40
2011,09,20,15,40,19.40
2011,09,20,15,41,19.40
2011,09,20,15,42,19.40
2011,09,20,15,43,19.40
2011,09,20,15,44,19.40
2011,09,20,15,45,19.40
2011,09,20,15,46,19.40
2011,09,20,15,47,19.40
2011,09,20,15,48,19.40
2011,09,20,15,49,19.30
2011,09,20,15,50,19.30
2011,09,20,15,51,19.30
2011,09,20,15,52,19.30
2011,09,20,15,53,19.20
2011,09,20,15,54,19.20
2011,09,20,15,55,19.10
2011,09,20,15,56,19.00
2011,09,20,15,57,19.00
2011,09,20,15,58,19.00
2011,09,20,15,59,18.90
2011,09,20,16,00,18.90
2011,09,20,16,01,18.80
2011,09,20,16,02,18.80
2011,09,20,16,03,18.80
2011,09,20,16,04,18.70
2011,09,20,16,05,18.70
2011,09,20,16,06,18.70
2011,09,20,16,07,18.70
2011,09,20,16,08,18.70
2011,09,20,16,09,18.70
2011,09,20,16,10,18.70
2011,09,20,16,11,18.70
2011,09,20,16,12,18.70
2011,09,20,16,13,18.70
2011,09,20,16,14,18.70
2011,09,20,16,15,18.70
2011,09,20,16,16,18.70
2011,09,20,16,17,18.70
2011,09,20,16,18,18.60
2011,09,20,16,19,18.60
2011,09,20,16,20,18.60
2011,09,20,16,21,18.60
2011,09,20,16,22,18.60
2011,09,20,16,23,18.50
2011,09,20,16,24,18.50
2011,09,20,16,25,18.40
2011,09,20,16,26,18.40
2011,09,20,16,27,18.40
2011,09,20,16,28,18.30
2011,09,20,16,29,18.30
2011,09,20,16,30,18.30
2011,09,20,16,31,18.30
2011,09,20,16,32,18.30
2011,09,20,16,33,18.20
2011,09,20,16,34,18.20
2011,09,20,16,35,18.20
2011,09,20,16,36,18.20
2011,09,20,16,37,18.20
2011,09,20,16,38,18.10
2011,09,20,16,39,18.10
2011,09,20,16,40,18.10
2011,09,20,16,41,18.10
2011,09,20,16,42,18.10
2011,09,20,16,43,18.10
2011,09,20,16,44,18.00
2011,09,20,16,45,18.00
2011,09,20,16,46,18.00
2011,09,20,16,47,18.00
2011,09,20,16,48,17.90
2011,09,20,16,49,17.90
2011,09,20,16,50,17.90
2011,09,20,16,51,17.90
2011,09,20,16,52,17.90
2011,09,20,16,53,17.80
2011,09,20,16,54,17.80
2011,09,20,16,55,17.80
2011,09,20,16,56,17.80
2011,09,20,16,57,17.80
2011,09,20,16,58,17.80
2011,09,20,16,59,17.80
2011,09,20,17,00,17.80
2011,09,20,17,01,17.80
2011,09,20,17,02,17.80
2011,09,20,17,03,17.80
2011,09,20,17,04,17.90
2011,09,20,17,05,17.90
2011,09,20,17,06,17.90
2011,09,20,17,07,17.90
2011,09,20,17,08,17.90
2011,09,20,17,09,17.90
2011,09,20,17,10,17.90
2011,09,20,17,11,17.90
2011,09,20,17,12,17.90
2011,09,20,17,13,18.00
2011,09,20,17,14,18.00
2011,09,20,17,15,18.00
2011,09,20,17,16,18.10
2011,09,20,17,17,18.10
2011,09,20,17,18,18.10
2011,09,20,17,19,18.10
2011,09,20,17,20,18.20
2011,09,20,17,21,18.20
2011,09,20,17,22,18.20
2011,09,20,17,23,18.20
2011,09,20,17,24,18.20
2011,09,20,17,25,18.30
2011,09,20,17,26,18.30
2011,09,20,17,27,18.30
2011,09,20,17,28,18.30
2011,09,20,17,29,18.30
2011,09,20,17,30,18.30
2011,09,20,17,31,18.30
2011,09,20,17,32,18.40
2011,09,20,17,33,18.40
2011,09,20,17,34,18.40
2011,09,20,17,35,18.40
2011,09,20,17,36,18.40
2011,09,20,17,37,18.40
2011,09,20,17,38,18.40
2011,09,20,17,39,18.40
2011,09,20,17,40,18.40
2011,09,20,17,41,18.40
2011,09,20,17,42,18.40